Akron Canton, OH

1:39 PM EDT on May 25, 2017 (GMT -0400)
Akron-Canton Regional

Weather History for KCAK - June, 2013

Change the Weather History Date:

Tuesday, June 25, 2013

  Actual Average Record
Temperature  
Mean Temperature 79 °F 70 °F  
Max Temperature 90 °F 81 °F 100 °F (1988)
Min Temperature 68 °F 60 °F 44 °F (1979)
Degree Days  
Heating Degree Days 0 1  
Month to date heating degree days 27 48  
Since 1 June heating degree days 27 48  
Since 1 July heating degree days 5829 6149  
Cooling Degree Days 14 6  
Month to date cooling degree days 122 103  
Year to date cooling degree days 228 145  
Since 1 June cooling degree days 122 103  
Growing Degree Days 29 (Base 50)    
Moisture  
Dew Point 68 °F    
Average Humidity 70    
Maximum Humidity 87    
Minimum Humidity 52    
Precipitation  
Precipitation 1.00 in 0.13 in 1.21 in (1949)
Month to date precipitation 4.81 3.20  
Year to date precipitation 17.07 18.93  
Snow  
Snow 0.00 in 0.00 in - ()
Month to date snowfall 0.0 0.0  
Since 1 June snowfall 0.0 0.0  
Since 1 July snowfall 47.2 47.5  
Snow Depth 0.00 in    
Sea Level Pressure  
Sea Level Pressure 29.95 in    
Wind  
Wind Speed 9 mph (SW)    
Max Wind Speed 37 mph    
Max Gust Speed 47 mph    
Visibility 5 miles    
Events Rain , Thunderstorm    
T = Trace of Precipitation, MM = Missing Value Source: NWS Daily Summary

Daily Weather History Graph

Daily Weather History Graph

Search for Another Location

Airport or City:

Trip Planner

Search our weather history database for the weather conditions in past years. The results will help you decide how hot, cold, wet, or windy it might be!

Date:

Astronomy

Jun. 25, 2013 Rise Set
Actual Time 5:55 AM EDT 9:01 PM EDT
Civil Twilight 5:21 AM EDT 9:35 PM EDT
Nautical Twilight 4:38 AM EDT 10:18 PM EDT
Astronomical Twilight 3:47 AM EDT 11:08 PM EDT
Moon 10:44 PM EDT 8:34 AM EDT
Length of Visible Light 16h 13m
Length of Day
15h 06m
Waning Gibbous, 93% of the Moon is Illuminated
Jun 25
Waning Gibbous
Jun 30
Last Quarter
Jul 8
New
Jul 15
First Quarter
Jul 22
Full

Hourly Weather History & Observations

Time (EDT) Temp. Heat Index Dew Point Humidity Pressure Visibility Wind Dir Wind Speed Gust Speed Precip Events Conditions
12:51 AM 75.0 °F - 66.9 °F 76% 30.03 in 6.0 mi SW 9.2 mph - N/A   Haze
1:51 AM 73.9 °F - 66.9 °F 79% 30.01 in 6.0 mi SW 8.1 mph - N/A   Haze
2:51 AM 73.0 °F - 66.9 °F 81% 29.96 in 5.0 mi South 11.5 mph - N/A   Haze
3:51 AM 73.0 °F - 66.9 °F 81% 29.97 in 5.0 mi SW 9.2 mph - N/A   Haze
4:51 AM 72.0 °F - 66.9 °F 84% 29.97 in 5.0 mi SW 8.1 mph - N/A   Haze
5:51 AM 72.0 °F - 66.9 °F 84% 29.98 in 5.0 mi SW 6.9 mph - N/A   Haze
6:51 AM 72.0 °F - 66.9 °F 84% 29.99 in 4.0 mi SW 6.9 mph - N/A   Haze
7:51 AM 73.9 °F - 66.9 °F 79% 30.01 in 4.0 mi WSW 8.1 mph - N/A   Haze
8:51 AM 78.1 °F - 66.9 °F 68% 30.02 in 4.0 mi West 11.5 mph - N/A   Haze
9:51 AM 80.1 °F 82.7 °F 68.0 °F 67% 30.02 in 5.0 mi West 10.4 mph - N/A   Haze
10:51 AM 82.9 °F 86.5 °F 69.1 °F 63% 30.00 in 6.0 mi WSW 10.4 mph 20.7 mph N/A   Haze
11:51 AM 84.0 °F 87.8 °F 69.1 °F 61% 29.99 in 6.0 mi West 13.8 mph - N/A   Haze
12:51 PM 86.0 °F 90.1 °F 69.1 °F 57% 29.96 in 6.0 mi WSW 12.7 mph 23.0 mph N/A   Haze
1:51 PM 88.0 °F 92.1 °F 69.1 °F 53% 29.95 in 7.0 mi SW 13.8 mph 20.7 mph N/A   Mostly Cloudy
2:51 PM 88.0 °F 91.4 °F 68.0 °F 51% 29.93 in 7.0 mi WSW 17.3 mph 21.9 mph N/A   Mostly Cloudy
3:51 PM 89.1 °F 94.1 °F 70.0 °F 53% 29.91 in 6.0 mi SW 12.7 mph - N/A   Haze
4:07 PM 87.8 °F 92.6 °F 69.8 °F 55% 29.93 in 6.0 mi SW 13.8 mph 24.2 mph N/A Thunderstorm Thunderstorm
4:41 PM 80.6 °F 84.6 °F 71.6 °F 74% 29.92 in 0.5 mi SSW 20.7 mph 38.0 mph 0.00 in Rain , Thunderstorm Heavy Thunderstorms and Rain
4:51 PM 80.1 °F 83.6 °F 71.1 °F 74% 29.88 in 2.0 mi WSW 3.5 mph - 0.08 in Rain , Thunderstorm Heavy Thunderstorms and Rain
4:53 PM 80.6 °F 84.6 °F 71.6 °F 74% 29.90 in 5.0 mi SW 3.5 mph - 0.00 in Rain , Thunderstorm Heavy Thunderstorms and Rain
5:10 PM 73.4 °F - 66.2 °F 78% 29.95 in 1.0 mi WSW 12.7 mph 47.2 mph 0.06 in Rain , Thunderstorm Heavy Thunderstorms and Rain
5:51 PM 73.9 °F - 66.9 °F 79% 29.90 in 5.0 mi SSE 8.1 mph - 0.14 in Rain , Thunderstorm Light Thunderstorms and Rain
6:25 PM 73.4 °F - 68.0 °F 83% 29.91 in 5.0 mi South 3.5 mph - 0.00 in   Haze
6:51 PM 73.0 °F - 69.1 °F 87% 29.88 in 5.0 mi Calm Calm - 0.00 in   Overcast
7:51 PM 73.0 °F - 69.1 °F 87% 29.89 in 5.0 mi SSW 6.9 mph - N/A   Mostly Cloudy
8:51 PM 73.0 °F - 66.9 °F 81% 29.87 in 6.0 mi South 11.5 mph - N/A   Haze
9:51 PM 72.0 °F - 66.9 °F 84% 29.89 in 7.0 mi SSW 6.9 mph - N/A Thunderstorm Thunderstorm
10:17 PM 69.8 °F - 62.6 °F 78% 29.95 in 9.0 mi NNE 18.4 mph 27.6 mph N/A Thunderstorm Thunderstorm
10:51 PM 69.1 °F - 64.0 °F 84% 29.93 in 9.0 mi ESE 4.6 mph - 0.00 in Rain , Thunderstorm Light Thunderstorms and Rain
11:37 PM 69.8 °F - 64.4 °F 83% 29.97 in 3.0 mi ESE 9.2 mph - 0.00 in Rain , Thunderstorm Heavy Thunderstorms and Rain
11:48 PM 69.8 °F - 64.4 °F 83% 29.97 in 2.0 mi SSE 9.2 mph - 0.11 in Rain , Thunderstorm Heavy Thunderstorms and Rain
11:51 PM 69.1 °F - 64.9 °F 87% 29.94 in 2.0 mi SSE 10.4 mph - 0.14 in Rain , Thunderstorm Heavy Thunderstorms and Rain
11:58 PM 69.8 °F - 66.2 °F 88% 29.96 in 1.0 mi ESE 8.1 mph - 0.14 in Rain , Thunderstorm Heavy Thunderstorms and Rain